Theta_e
319 321 322 326 325 323 323 324 321 323 322 318 318 321 322 322 322 322 322 326 327 330 337 338 339 337 336 335 334 333 333 332 334 338 338 335 336 336 335 336 338 339 340 337 336 335 334 331 331
318 320 324 325 322 320 318 321 324 322 319 318 318 319 321 321 321 322 325 325 328 330 337 341 339 340 340 337 337 337 334 331 333 338 337 336 335 335 335 335 337 337 337 335 335 331 326 327 326
319 320 323 322 322 320 320 321 321 318 317 318 320 318 320 322 319 322 322 326 329 330 335 339 338 340 340 339 339 337 335 332 335 338 336 336 335 333 333 333 334 335 334 333 328 326 324 323 323
320 321 321 321 321 321 320 320 320 321 317 316 318 319 317 317 320 320 320 328 331 331 334 336 333 335 337 338 338 337 335 334 337 336 335 334 333 332 331 331 332 333 331 328 325 322 318 314 310
318 320 319 320 319 319 319 319 318 320 319 318 317 320 319 316 315 316 323 329 332 332 334 336 329 331 332 334 336 336 333 336 337 334 333 332 332 331 329 328 330 329 326 323 320 319 310 303 301
319 320 318 319 318 318 319 318 318 318 318 317 317 318 319 314 314 316 322 329 331 333 334 335 332 333 333 333 336 335 334 338 337 334 332 330 330 329 326 326 326 324 322 319 317 310 303 300 299
319 319 318 319 320 321 321 315 317 318 318 319 316 319 319 317 313 315 322 328 331 333 334 335 335 334 331 333 337 336 336 338 336 333 330 330 329 326 323 323 322 321 319 318 315 310 303 300 299
321 321 321 321 319 319 318 316 316 317 318 313 315 318 318 318 313 315 321 326 329 331 333 334 335 335 335 333 333 336 335 337 335 333 330 329 328 322 320 318 319 319 318 314 311 307 302 300 300
316 320 320 319 318 317 317 317 314 314 316 315 316 317 318 312 312 319 322 324 327 329 331 332 333 333 333 333 331 334 334 334 334 333 330 328 323 320 318 317 317 318 316 311 303 300 300 300 300
320 320 319 317 317 317 317 317 317 317 318 318 317 316 314 312 314 317 320 322 325 327 328 329 330 331 331 331 331 331 334 333 333 332 329 326 321 318 317 316 317 317 314 310 303 299 299 299 299
320 320 319 317 315 314 316 317 316 317 318 318 318 317 317 314 314 315 317 318 321 324 326 326 327 328 328 329 329 329 331 332 331 329 325 322 318 315 313 315 316 316 312 309 303 298 298 298 298
320 319 319 318 316 316 317 317 317 317 317 317 317 317 316 315 315 314 315 317 318 320 323 325 325 326 326 326 327 327 328 328 326 325 322 319 316 314 312 314 314 313 310 306 299 297 297 297 297
319 319 318 318 316 316 317 318 318 317 317 316 316 315 314 315 314 313 313 313 315 317 320 322 324 324 324 325 324 325 325 325 324 322 320 318 314 311 310 311 311 310 306 301 297 297 297 296 296
316 316 316 315 315 316 316 316 315 315 315 315 315 315 315 315 314 312 312 311 312 314 317 319 322 322 323 323 323 323 322 323 322 319 318 316 312 309 308 308 308 306 303 298 296 297 296 295 295
313 315 315 315 314 314 314 315 315 315 314 314 314 315 314 314 313 312 312 312 312 312 313 316 319 320 322 322 321 321 320 320 320 317 316 315 312 307 303 305 305 303 300 296 296 296 295 295 294
313 313 315 315 312 312 314 314 315 314 312 313 313 314 314 314 314 313 313 311 311 311 311 312 315 317 319 321 320 320 319 318 317 316 314 314 311 308 302 302 301 300 296 295 295 295 294 295 295
314 315 315 314 312 312 314 314 314 313 312 312 313 313 314 314 313 313 312 312 311 310 310 310 312 316 317 319 319 319 318 317 316 315 313 312 311 308 303 300 299 298 295 295 295 295 295 295 295
317 316 314 314 314 312 312 312 312 312 312 312 312 313 313 313 313 312 310 309 309 310 309 309 309 312 315 316 317 318 316 315 314 313 312 310 309 307 302 299 298 297 295 294 294 294 294 295 295
313 313 314 314 313 312 313 313 313 313 312 313 313 313 313 313 312 310 309 308 307 307 307 307 307 307 312 313 314 315 315 314 313 312 310 308 307 306 303 299 297 296 295 295 294 294 293 293 293
313 313 314 314 313 310 313 313 312 313 313 313 313 313 313 311 310 309 307 306 305 304 304 304 305 305 308 311 312 313 312 312 311 311 308 307 305 305 304 300 297 295 294 294 293 293 293 294 293
313 313 315 314 312 312 311 316 314 314 311 311 311 311 310 309 309 307 305 303 302 301 301 301 302 302 304 307 309 309 304 306 307 308 306 304 304 302 303 299 297 296 295 294 293 293 293 294 292
315 314 312 312 312 318 311 319 317 315 314 312 312 311 310 308 307 305 303 301 300 298 298 299 300 300 300 303 305 305 304 304 303 303 303 303 302 301 300 299 297 296 295 294 293 293 293 295 294
314 309 309 309 312 312 313 313 318 312 312 312 311 308 309 305 304 303 302 301 299 298 297 297 297 297 298 300 301 302 303 303 302 300 301 301 300 299 298 297 296 295 295 294 293 292 292 293 296
307 310 309 310 312 316 315 314 316 314 312 312 308 306 304 303 302 301 300 300 299 297 296 296 296 295 295 296 298 299 300 300 300 299 299 299 298 297 297 296 295 295 294 294 294 293 292 292 294
309 312 321 319 320 320 312 312 314 313 309 308 307 304 302 301 301 300 300 299 298 297 296 295 295 295 295 294 295 295 296 297 298 298 298 298 297 296 295 295 294 294 294 293 293 293 292 292 292
312 314 319 321 323 321 309 315 316 311 306 304 303 301 299 299 300 300 299 298 297 296 295 295 295 295 294 294 294 294 294 294 295 296 296 297 297 296 295 294 293 293 293 293 292 292 291 291 291
311 312 312 316 317 316 315 315 315 313 306 304 301 299 297 297 297 297 297 297 295 295 294 294 293 293 294 294 294 294 294 293 294 294 294 294 295 295 294 293 293 292 292 292 292 291 291 291 291
309 310 314 312 317 321 315 314 316 313 309 302 299 297 296 295 295 295 296 296 295 294 294 293 293 292 291 292 293 293 293 293 293 293 292 292 292 293 293 293 292 292 291 291 291 290 290 290 290
312 310 309 310 313 318 320 316 310 309 304 300 296 295 294 294 295 295 294 295 295 293 293 292 291 291 291 290 291 291 292 292 292 292 292 292 291 291 291 292 291 291 290 290 290 290 290 289 289
311 313 313 318 317 315 315 315 304 302 299 296 293 292 292 293 293 293 294 292 294 292 291 292 291 290 290 289 289 289 289 289 289 290 292 292 292 292 290 290 290 290 290 289 289 289 289 288 288
Wind_Speed
4 4 4 3 4 3 3 1 2 3 2 1 2 3 5 6 4 6 0 7 6 20 24 29 27 25 22 20 17 16 14 11 9 9 8 8 6 6 6 5 7 8 9 6 4 4 3 2 2
3 3 1 1 4 4 2 0 2 2 2 2 4 4 5 7 4 5 2 7 8 20 22 24 28 26 22 21 19 16 14 13 11 10 11 9 9 7 7 6 6 7 5 3 6 4 3 2 1
1 3 3 2 2 3 3 1 2 2 4 4 3 3 4 3 2 2 3 9 11 18 20 20 26 25 24 22 20 18 15 14 14 12 10 9 9 6 7 8 8 7 6 7 4 3 2 2 3
1 2 3 4 7 8 6 8 8 10 1 3 4 7 3 5 2 3 2 13 13 18 18 20 26 25 23 22 21 19 16 16 16 15 13 13 11 10 6 6 8 9 9 7 5 4 4 4 3
2 1 3 3 5 5 8 8 6 5 3 3 2 3 4 2 5 5 3 12 13 18 19 19 24 23 23 23 22 21 19 19 19 18 16 12 12 12 9 9 10 11 9 7 8 7 4 2 2
2 2 3 5 4 5 7 5 4 4 2 1 4 5 4 2 3 5 7 10 12 17 20 20 25 24 23 21 20 21 22 22 23 21 18 14 14 13 10 10 11 11 9 8 7 5 4 4 4
2 2 3 5 7 5 2 1 3 3 2 4 1 5 4 5 3 5 7 10 12 16 20 21 22 26 25 24 22 22 23 24 23 21 15 15 15 13 12 12 11 11 11 10 9 8 6 4 3
1 2 2 4 3 5 2 2 1 5 6 1 2 4 5 2 2 4 6 9 13 17 20 21 21 22 23 23 26 24 24 24 24 22 18 18 19 16 14 15 12 11 11 11 10 9 7 4 3
1 4 5 4 4 2 2 4 3 3 8 5 7 9 12 4 5 5 7 10 15 19 22 22 22 22 23 23 24 27 26 26 26 24 23 24 16 15 15 14 15 14 13 12 11 9 6 4 3
4 4 5 4 5 7 6 5 7 6 14 17 12 16 17 9 9 12 14 16 20 23 26 25 25 25 24 23 23 24 24 25 24 23 24 21 18 16 16 16 18 17 15 13 12 10 7 6 5
4 7 7 8 12 8 8 9 4 10 17 14 16 18 13 11 15 17 20 22 23 23 22 28 26 26 26 25 24 23 25 25 25 25 24 23 20 20 19 15 17 16 17 12 11 10 8 8 6
6 12 10 6 4 4 7 6 11 14 25 23 22 19 17 16 16 19 22 22 22 22 25 25 28 27 27 26 27 26 26 26 26 27 27 27 25 22 20 19 19 17 17 15 14 13 11 9 7
9 10 10 11 9 10 12 21 17 21 22 24 21 16 17 17 21 21 22 22 21 24 24 25 26 30 29 29 27 28 28 29 28 26 31 31 26 27 24 22 20 19 20 19 17 15 13 11 8
3 7 11 8 14 11 10 24 8 12 10 16 17 18 17 15 19 19 16 21 21 22 24 25 29 31 30 32 31 31 30 30 29 29 33 36 32 29 26 25 25 24 23 20 18 16 14 11 9
3 11 15 15 10 8 8 14 16 20 7 15 21 18 17 18 19 20 23 22 19 24 26 27 30 32 35 36 36 35 34 32 33 32 35 39 38 33 30 27 26 26 25 22 20 18 15 12 10
5 4 10 7 4 3 8 20 21 14 8 16 20 23 24 25 25 26 25 23 24 24 24 26 31 34 35 37 36 34 31 32 31 30 32 39 40 36 31 28 28 27 26 24 21 19 16 11 9
5 11 14 16 4 3 10 14 16 17 18 26 24 24 21 21 23 22 21 21 24 23 22 22 26 30 33 35 32 32 31 32 32 30 32 39 41 40 35 30 28 30 27 24 22 20 16 13 10
15 13 11 12 14 11 17 20 21 24 22 25 25 23 18 18 16 21 21 21 22 21 17 18 19 23 24 24 27 27 29 31 31 34 35 36 41 40 36 33 32 33 29 25 24 21 16 13 12
10 14 18 23 20 16 20 19 18 24 22 24 22 16 14 13 14 16 18 20 19 14 12 13 15 17 20 23 24 27 29 28 30 32 32 33 38 42 40 34 32 33 33 33 28 23 21 14 14
13 14 21 16 15 3 14 19 23 18 15 14 14 13 10 11 14 20 26 26 27 25 20 12 10 13 17 18 21 22 22 25 26 26 27 31 34 40 43 42 40 39 34 30 31 28 19 11 21
13 14 17 16 13 13 11 13 5 9 10 5 4 5 8 13 18 20 26 31 31 30 28 19 11 8 11 14 14 15 10 14 17 21 22 24 28 34 46 43 41 43 40 38 40 37 30 19 20
13 10 15 11 6 10 8 11 8 7 9 3 8 15 13 16 18 18 20 26 30 30 27 27 19 7 5 8 10 14 15 15 15 18 21 23 26 29 35 42 41 42 44 35 40 39 31 24 20
5 2 2 1 6 7 3 7 1 2 2 7 12 14 15 17 18 19 21 26 27 33 38 31 26 19 10 3 7 10 14 13 12 10 14 19 21 27 29 34 37 41 44 36 39 40 35 31 22
4 1 1 0 3 8 4 7 3 3 3 6 11 13 13 15 16 18 24 28 36 36 33 33 31 28 21 12 7 9 12 13 13 12 12 15 18 22 28 33 35 37 41 44 46 45 44 40 28
5 3 7 6 6 12 4 6 8 7 8 7 9 11 14 15 16 18 22 27 30 34 33 30 32 32 27 20 15 12 11 13 16 15 13 14 15 19 26 30 34 38 42 39 42 45 45 44 35
9 7 6 8 15 17 6 10 9 11 13 13 13 13 14 15 15 18 19 23 23 24 27 28 29 29 28 28 23 16 13 13 15 15 15 15 16 18 21 28 31 32 35 37 38 37 38 40 42
6 7 3 7 6 8 16 23 17 9 11 10 11 11 13 14 14 15 18 20 22 22 23 24 25 24 25 25 25 27 20 16 15 15 17 18 15 16 18 22 30 34 36 41 41 39 41 42 43
8 3 8 5 8 20 17 20 13 7 5 7 8 9 9 10 11 11 13 16 17 18 20 20 20 23 24 23 24 25 25 23 18 16 16 20 22 21 21 20 24 29 34 39 41 37 39 40 40
10 8 6 5 6 7 10 13 7 3 4 5 5 7 9 11 11 11 13 13 15 16 18 22 24 24 26 26 25 23 25 26 25 23 19 16 17 18 21 25 25 28 32 34 37 39 40 43 37
4 12 14 10 11 13 14 18 2 3 6 6 4 2 3 6 10 10 13 15 16 18 20 19 19 21 23 23 22 23 24 25 27 26 26 25 22 20 21 22 24 28 33 33 36 38 39 41 41
Wind_Direction
345 344 337 260 255 254 258 212 316 281 269 355 119 259 318 311 285 328 63 189 194 179 176 184 189 190 190 190 189 189 191 188 181 177 177 170 174 152 140 144 131 142 134 135 187 172 185 165 125
347 341 299 272 264 270 72 73 245 343 342 268 241 232 251 290 261 285 282 207 189 178 181 183 190 190 191 193 193 198 198 198 192 187 177 179 174 183 180 169 135 146 147 168 227 188 164 145 180
13 23 283 315 273 308 351 188 8 338 290 253 261 245 294 259 207 286 277 181 181 183 184 189 196 194 193 198 201 202 201 202 193 192 187 168 182 186 172 188 179 195 204 216 160 165 165 171 247
222 168 129 267 281 280 267 300 302 305 157 227 291 270 234 256 265 209 273 177 177 183 189 197 195 202 205 204 206 205 205 198 195 186 195 204 202 203 187 182 179 198 177 155 170 175 189 228 273
58 220 230 262 272 273 264 292 295 290 298 201 210 295 266 225 228 248 214 188 185 188 188 193 197 201 205 210 212 212 205 198 195 198 207 212 219 215 206 184 175 186 169 170 157 155 185 164 119
148 281 239 268 271 271 282 273 274 258 264 187 223 258 264 172 234 229 212 199 197 192 190 193 198 202 204 203 209 211 206 200 203 209 205 205 215 209 199 184 178 172 174 167 177 167 136 124 113
236 228 291 288 289 284 243 173 235 302 276 260 322 270 282 241 236 219 205 200 201 198 196 198 201 206 207 204 202 206 204 204 207 205 213 207 205 201 195 189 184 174 165 162 154 148 147 139 116
162 240 222 227 284 283 206 222 239 265 315 95 230 244 286 106 211 204 204 203 203 203 205 207 207 208 207 209 205 208 212 210 210 212 207 202 211 207 199 197 188 177 170 164 159 158 153 142 108
199 237 256 255 223 274 185 253 171 297 271 231 212 248 286 234 250 212 207 211 211 213 212 210 211 212 211 210 213 208 211 217 219 217 211 210 202 203 202 191 192 177 175 172 171 176 172 158 138
227 233 252 228 232 265 280 260 286 269 272 265 263 259 255 251 249 247 234 231 220 219 215 212 211 211 210 212 212 210 212 211 211 208 206 203 200 196 190 190 184 186 181 176 180 183 175 160 149
182 245 248 240 245 261 278 271 246 263 275 270 283 294 290 256 246 246 247 244 239 234 223 216 213 211 208 210 210 211 211 206 206 206 199 198 196 200 193 186 186 185 188 175 183 180 175 173 166
230 244 241 265 224 224 263 288 252 250 265 282 285 293 285 271 266 254 252 253 245 237 231 225 217 213 213 210 208 209 208 205 204 202 202 201 200 196 193 190 188 187 186 188 188 186 183 178 175
237 256 250 245 244 251 273 264 265 268 268 278 281 277 270 275 269 268 261 262 255 244 235 228 220 218 215 211 211 211 210 208 208 204 207 205 201 200 196 195 193 193 195 194 191 187 186 182 176
333 275 273 269 250 243 244 272 303 255 267 280 285 282 285 276 270 277 265 258 244 247 239 230 223 219 215 215 213 212 210 210 207 207 210 209 208 203 199 196 196 197 198 196 193 190 186 182 178
321 295 291 262 251 244 223 269 240 271 293 277 284 288 293 282 277 274 285 269 252 247 247 230 222 219 216 216 214 213 212 207 208 209 211 212 210 206 202 200 199 199 198 198 194 191 188 183 181
258 262 284 297 145 188 197 278 289 320 316 296 292 290 286 290 298 297 290 272 270 263 246 240 228 222 218 217 216 216 215 212 213 211 211 213 212 209 203 201 202 201 199 197 194 191 186 181 179
222 273 270 295 225 146 210 283 298 299 296 290 289 285 295 299 294 309 305 291 277 268 255 241 228 225 220 220 217 216 215 215 216 214 212 215 213 210 207 205 202 201 198 197 194 191 187 179 176
281 280 265 272 292 283 286 272 283 288 284 278 290 297 303 298 321 325 322 319 306 296 277 256 239 231 224 221 219 220 219 218 217 216 215 213 213 211 208 207 205 202 198 196 195 193 185 182 172
290 282 284 278 285 296 290 299 294 281 286 286 285 303 305 320 333 349 359 353 335 329 314 277 252 236 211 213 214 216 220 221 222 218 216 212 212 211 207 208 208 203 203 202 197 189 185 173 168
260 268 271 282 283 263 287 300 292 295 271 278 298 301 328 356 18 17 16 14 6 358 352 327 268 236 225 218 218 216 229 231 229 227 225 218 213 212 210 208 207 206 202 199 197 193 179 181 183
253 258 273 272 320 275 301 280 251 279 266 333 299 309 51 40 20 17 20 19 14 11 3 355 333 272 229 221 222 218 237 225 223 231 235 230 222 218 216 212 210 208 204 201 203 199 193 178 193
273 268 265 280 307 298 14 303 294 263 276 358 43 60 41 25 29 31 25 26 22 18 17 20 12 0 292 234 234 228 239 237 240 230 224 226 228 226 223 217 213 211 208 203 206 204 201 189 184
258 55 349 348 283 300 287 267 2 253 225 131 63 49 34 33 31 28 22 29 28 27 26 26 26 21 8 308 253 253 255 261 270 264 242 229 226 225 224 220 216 214 211 207 209 206 202 204 199
136 138 107 257 272 265 297 224 346 134 76 77 92 58 46 32 33 33 26 24 26 31 33 32 31 27 14 356 322 289 280 275 267 268 251 238 230 224 222 222 219 218 216 212 212 213 211 208 204
212 261 285 257 242 267 137 227 250 253 63 62 55 66 52 38 32 34 31 29 24 21 23 29 34 30 23 14 355 329 305 291 285 278 262 245 233 229 228 220 218 219 221 220 216 213 212 211 208
196 209 237 273 274 283 93 261 277 102 72 62 54 49 36 32 30 31 28 26 26 24 25 24 27 27 22 22 11 358 338 316 301 292 273 260 252 245 238 225 222 221 223 221 220 219 215 211 212
156 207 283 269 264 281 265 259 263 150 75 65 53 42 33 27 26 25 23 19 17 21 25 24 24 27 23 20 16 20 3 345 323 306 291 282 269 262 251 239 229 224 222 222 222 218 218 219 218
245 330 250 221 258 254 253 259 256 205 105 73 44 34 29 27 25 21 23 16 15 14 15 22 23 21 20 18 20 17 14 12 353 327 309 300 293 280 269 250 244 230 225 223 220 221 220 219 218
247 242 232 268 255 263 262 252 343 344 132 86 45 26 17 12 7 7 9 10 10 12 13 13 13 13 14 14 9 12 9 9 10 6 344 320 305 288 276 270 254 238 231 224 221 223 220 216 216
259 259 242 246 247 240 263 264 108 148 150 148 158 112 36 19 355 353 4 2 1 2 4 6 9 9 5 3 359 7 6 3 3 2 357 353 337 319 289 276 260 248 240 231 226 224 222 217 210